QPF
0.01 0.02 0.02 0.03 0.02 0.02 0.01 0.01 0.02 0.03 0.03 0.02 0.02 0.02 0.02 0.05 0.07 0.08 0.08 0.08 0.08 0.08 0.09 0.09 0.10 0.09 0.10 0.09 0.09 0.09 0.08 0.07 0.06 0.07 0.06 0.04 0.02 0.03 0.04 0.04 0.03 0.01 0.00
0.01 0.01 0.02 0.03 0.02 0.01 0.00 0.01 0.01 0.02 0.02 0.02 0.01 0.01 0.03 0.05 0.06 0.06 0.06 0.07 0.07 0.06 0.06 0.10 0.10 0.08 0.08 0.07 0.08 0.07 0.06 0.05 0.06 0.07 0.07 0.05 0.04 0.03 0.02 0.02 0.03 0.02 0.01
0.00 0.00 0.01 0.02 0.02 0.02 0.01 0.01 0.02 0.01 0.01 0.01 0.02 0.02 0.03 0.04 0.06 0.05 0.04 0.03 0.03 0.03 0.04 0.06 0.08 0.08 0.08 0.08 0.10 0.09 0.07 0.06 0.07 0.06 0.08 0.10 0.09 0.07 0.04 0.02 0.02 0.02 0.02
0.00 0.01 0.01 0.01 0.01 0.02 0.01 0.01 0.02 0.01 0.02 0.01 0.01 0.02 0.03 0.04 0.06 0.07 0.05 0.05 0.04 0.03 0.03 0.05 0.08 0.07 0.07 0.08 0.09 0.09 0.08 0.08 0.07 0.07 0.06 0.08 0.09 0.11 0.09 0.05 0.03 0.03 0.02
0.01 0.01 0.01 0.01 0.01 0.02 0.02 0.01 0.02 0.01 0.02 0.02 0.02 0.02 0.03 0.04 0.04 0.05 0.07 0.07 0.08 0.07 0.06 0.08 0.08 0.07 0.07 0.08 0.08 0.08 0.07 0.07 0.05 0.05 0.04 0.04 0.05 0.08 0.09 0.06 0.05 0.04 0.02
0.00 0.01 0.02 0.02 0.02 0.02 0.02 0.01 0.01 0.01 0.01 0.02 0.02 0.03 0.03 0.03 0.03 0.04 0.05 0.08 0.10 0.11 0.10 0.11 0.10 0.09 0.08 0.08 0.08 0.07 0.07 0.07 0.06 0.06 0.06 0.06 0.05 0.05 0.06 0.06 0.06 0.05 0.03
0.00 0.00 0.02 0.03 0.02 0.01 0.02 0.01 0.01 0.01 0.01 0.02 0.03 0.03 0.02 0.03 0.04 0.06 0.05 0.06 0.09 0.11 0.11 0.10 0.11 0.10 0.09 0.09 0.09 0.07 0.06 0.06 0.06 0.06 0.06 0.07 0.07 0.07 0.07 0.08 0.08 0.07 0.05
0.00 0.00 0.01 0.03 0.02 0.01 0.01 0.01 0.01 0.01 0.01 0.02 0.02 0.02 0.01 0.02 0.05 0.07 0.05 0.05 0.06 0.08 0.08 0.07 0.07 0.07 0.07 0.08 0.08 0.06 0.05 0.05 0.05 0.05 0.07 0.07 0.07 0.08 0.09 0.09 0.10 0.09 0.07
0.00 0.00 0.01 0.02 0.02 0.01 0.01 0.01 0.00 0.00 0.01 0.01 0.02 0.02 0.01 0.02 0.05 0.06 0.04 0.02 0.02 0.03 0.05 0.04 0.04 0.04 0.05 0.05 0.05 0.04 0.04 0.04 0.04 0.05 0.06 0.06 0.05 0.05 0.05 0.06 0.08 0.08 0.07
0.00 0.00 0.00 0.01 0.02 0.01 0.01 0.01 0.01 0.00 0.00 0.01 0.01 0.01 0.01 0.03 0.03 0.03 0.02 0.01 0.01 0.02 0.02 0.02 0.02 0.02 0.02 0.03 0.03 0.03 0.03 0.03 0.04 0.04 0.05 0.05 0.05 0.04 0.04 0.04 0.05 0.05 0.07
0.00 0.00 0.00 0.00 0.01 0.01 0.01 0.01 0.01 0.01 0.01 0.01 0.01 0.02 0.02 0.02 0.02 0.02 0.01 0.01 0.01 0.01 0.01 0.01 0.01 0.01 0.01 0.02 0.02 0.01 0.01 0.02 0.03 0.04 0.04 0.05 0.06 0.06 0.04 0.04 0.04 0.05 0.06
0.00 0.00 0.00 0.00 0.00 0.01 0.01 0.01 0.01 0.02 0.02 0.01 0.01 0.02 0.02 0.01 0.02 0.01 0.01 0.01 0.01 0.01 0.01 0.01 0.01 0.01 0.01 0.02 0.02 0.02 0.02 0.02 0.03 0.03 0.04 0.05 0.07 0.05 0.04 0.04 0.04 0.05 0.06
0.00 0.00 0.00 0.00 0.00 0.00 0.01 0.01 0.01 0.01 0.02 0.02 0.01 0.02 0.02 0.01 0.01 0.01 0.01 0.01 0.01 0.01 0.01 0.01 0.01 0.01 0.02 0.02 0.02 0.03 0.03 0.03 0.03 0.04 0.04 0.04 0.04 0.04 0.02 0.02 0.03 0.03 0.03
0.00 0.00 0.00 0.00 0.00 0.00 0.00 0.01 0.01 0.01 0.02 0.03 0.02 0.02 0.02 0.01 0.01 0.01 0.01 0.02 0.01 0.01 0.01 0.01 0.01 0.01 0.01 0.01 0.01 0.02 0.02 0.02 0.02 0.02 0.03 0.03 0.03 0.03 0.02 0.02 0.02 0.02 0.02
0.00 0.00 0.00 0.00 0.00 0.00 0.00 0.01 0.01 0.01 0.01 0.02 0.02 0.02 0.03 0.02 0.01 0.02 0.02 0.02 0.01 0.02 0.02 0.01 0.01 0.01 0.01 0.01 0.01 0.01 0.01 0.01 0.01 0.01 0.01 0.02 0.02 0.03 0.03 0.02 0.02 0.02 0.02
0.00 0.00 0.00 0.00 0.00 0.00 0.00 0.00 0.01 0.01 0.01 0.02 0.02 0.02 0.02 0.02 0.02 0.03 0.03 0.04 0.04 0.03 0.03 0.02 0.02 0.02 0.01 0.01 0.01 0.01 0.01 0.01 0.01 0.01 0.01 0.01 0.02 0.02 0.02 0.02 0.02 0.02 0.02
0.00 0.00 0.00 0.00 0.00 0.00 0.00 0.01 0.01 0.01 0.02 0.02 0.03 0.03 0.03 0.03 0.04 0.04 0.04 0.04 0.04 0.03 0.03 0.03 0.02 0.02 0.01 0.01 0.01 0.01 0.01 0.01 0.01 0.01 0.01 0.01 0.02 0.01 0.01 0.01 0.01 0.02 0.02
0.00 0.00 0.00 0.00 0.00 0.01 0.01 0.01 0.01 0.02 0.03 0.03 0.03 0.03 0.05 0.05 0.04 0.04 0.04 0.03 0.03 0.03 0.03 0.03 0.02 0.02 0.03 0.03 0.03 0.03 0.02 0.01 0.01 0.01 0.01 0.01 0.01 0.01 0.02 0.02 0.02 0.02 0.02
0.00 0.00 0.00 0.00 0.00 0.01 0.01 0.02 0.02 0.01 0.02 0.02 0.02 0.04 0.05 0.05 0.04 0.04 0.04 0.04 0.04 0.04 0.04 0.04 0.04 0.03 0.03 0.03 0.02 0.01 0.01 0.01 0.01 0.01 0.01 0.01 0.01 0.04 0.05 0.04 0.04 0.03 0.02
0.00 0.00 0.00 0.00 0.01 0.01 0.01 0.01 0.01 0.01 0.02 0.02 0.03 0.03 0.04 0.06 0.06 0.06 0.07 0.08 0.08 0.08 0.07 0.06 0.04 0.03 0.03 0.03 0.02 0.01 0.01 0.01 0.01 0.01 0.01 0.02 0.02 0.05 0.07 0.05 0.04 0.03 0.02
0.00 0.00 0.01 0.01 0.02 0.02 0.03 0.03 0.02 0.02 0.02 0.02 0.02 0.03 0.05 0.07 0.08 0.08 0.07 0.06 0.06 0.07 0.07 0.06 0.05 0.04 0.03 0.03 0.02 0.01 0.00 0.00 0.00 0.01 0.02 0.03 0.04 0.05 0.05 0.05 0.04 0.03 0.02
0.01 0.00 0.01 0.02 0.03 0.04 0.04 0.04 0.03 0.02 0.02 0.02 0.02 0.02 0.03 0.04 0.05 0.04 0.04 0.04 0.05 0.06 0.06 0.04 0.03 0.03 0.03 0.03 0.02 0.02 0.01 0.00 0.00 0.01 0.02 0.02 0.03 0.03 0.03 0.03 0.03 0.02 0.01
0.01 0.01 0.02 0.03 0.04 0.06 0.04 0.03 0.03 0.02 0.01 0.01 0.01 0.02 0.02 0.02 0.02 0.03 0.03 0.03 0.04 0.04 0.04 0.04 0.03 0.02 0.02 0.03 0.03 0.02 0.01 0.01 0.00 0.00 0.01 0.01 0.01 0.01 0.01 0.01 0.01 0.01 0.00
0.01 0.02 0.03 0.04 0.05 0.06 0.04 0.02 0.01 0.01 0.01 0.01 0.01 0.01 0.01 0.02 0.01 0.01 0.01 0.01 0.01 0.02 0.03 0.03 0.03 0.03 0.03 0.03 0.02 0.02 0.02 0.02 0.01 0.00 0.00 0.00 0.00 0.00 0.00 0.00 0.00 0.00 0.00
0.02 0.03 0.05 0.05 0.06 0.05 0.04 0.02 0.01 0.01 0.01 0.01 0.01 0.01 0.01 0.01 0.01 0.01 0.01 0.01 0.02 0.04 0.05 0.05 0.05 0.05 0.04 0.02 0.02 0.02 0.02 0.02 0.02 0.02 0.01 0.00 0.00 0.00 0.00 0.00 0.00 0.01 0.00
0.05 0.03 0.03 0.05 0.05 0.04 0.03 0.02 0.02 0.02 0.02 0.02 0.02 0.02 0.02 0.02 0.01 0.01 0.01 0.02 0.03 0.04 0.04 0.05 0.05 0.04 0.03 0.02 0.02 0.02 0.02 0.03 0.03 0.03 0.02 0.01 0.01 0.01 0.01 0.01 0.01 0.01 0.01
MSLP
1005.01 1005.48 1005.99 1006.53 1007.07 1007.60 1008.12 1008.63 1009.14 1009.64 1010.12 1010.57 1010.98 1011.35 1011.66 1011.92 1012.14 1012.35 1012.55 1012.76 1012.99 1013.24 1013.52 1013.83 1014.17 1014.53 1014.90 1015.29 1015.68 1016.06 1016.41 1016.72 1016.99 1017.22 1017.40 1017.55 1017.68 1017.81 1017.95 1018.10 1018.27 1018.43 1018.57
1004.00 1004.46 1004.98 1005.54 1006.11 1006.67 1007.24 1007.79 1008.35 1008.89 1009.41 1009.90 1010.34 1010.72 1011.04 1011.30 1011.53 1011.73 1011.94 1012.18 1012.44 1012.74 1013.09 1013.46 1013.86 1014.27 1014.69 1015.09 1015.48 1015.85 1016.18 1016.47 1016.72 1016.94 1017.12 1017.28 1017.44 1017.61 1017.79 1017.99 1018.19 1018.40 1018.58
1002.91 1003.35 1003.88 1004.46 1005.05 1005.65 1006.25 1006.86 1007.47 1008.07 1008.66 1009.19 1009.67 1010.08 1010.42 1010.69 1010.91 1011.11 1011.33 1011.58 1011.87 1012.21 1012.60 1013.03 1013.48 1013.94 1014.39 1014.81 1015.20 1015.55 1015.86 1016.14 1016.37 1016.58 1016.77 1016.96 1017.14 1017.35 1017.57 1017.81 1018.05 1018.29 1018.51
1001.85 1002.26 1002.76 1003.33 1003.93 1004.55 1005.18 1005.84 1006.52 1007.19 1007.85 1008.46 1009.00 1009.46 1009.83 1010.12 1010.35 1010.56 1010.77 1011.02 1011.32 1011.69 1012.11 1012.57 1013.06 1013.55 1014.02 1014.46 1014.85 1015.20 1015.51 1015.77 1016.01 1016.22 1016.43 1016.63 1016.85 1017.08 1017.32 1017.58 1017.85 1018.11 1018.35
1000.90 1001.26 1001.71 1002.23 1002.80 1003.41 1004.06 1004.74 1005.47 1006.22 1006.97 1007.68 1008.31 1008.85 1009.28 1009.61 1009.87 1010.08 1010.30 1010.54 1010.83 1011.19 1011.62 1012.10 1012.60 1013.10 1013.59 1014.04 1014.45 1014.81 1015.13 1015.41 1015.66 1015.90 1016.12 1016.35 1016.58 1016.82 1017.08 1017.34 1017.61 1017.88 1018.13
1000.17 1000.43 1000.79 1001.23 1001.72 1002.27 1002.89 1003.59 1004.36 1005.18 1006.01 1006.83 1007.57 1008.22 1008.74 1009.14 1009.44 1009.68 1009.90 1010.13 1010.40 1010.74 1011.15 1011.61 1012.11 1012.61 1013.11 1013.58 1014.01 1014.40 1014.74 1015.06 1015.34 1015.60 1015.85 1016.10 1016.34 1016.58 1016.83 1017.09 1017.34 1017.60 1017.85
999.70 999.84 1000.08 1000.38 1000.75 1001.20 1001.75 1002.41 1003.19 1004.06 1004.98 1005.90 1006.77 1007.53 1008.17 1008.66 1009.03 1009.31 1009.54 1009.76 1010.02 1010.32 1010.69 1011.12 1011.59 1012.08 1012.58 1013.06 1013.51 1013.94 1014.33 1014.68 1015.01 1015.31 1015.59 1015.85 1016.10 1016.33 1016.56 1016.79 1017.03 1017.27 1017.52
999.51 999.53 999.61 999.74 999.95 1000.26 1000.69 1001.28 1002.03 1002.92 1003.90 1004.92 1005.90 1006.79 1007.54 1008.14 1008.60 1008.93 1009.19 1009.42 1009.65 1009.92 1010.25 1010.63 1011.06 1011.53 1012.01 1012.50 1012.97 1013.43 1013.86 1014.26 1014.63 1014.98 1015.28 1015.56 1015.80 1016.03 1016.24 1016.45 1016.66 1016.90 1017.15
999.60 999.48 999.39 999.34 999.36 999.50 999.79 1000.27 1000.97 1001.84 1002.85 1003.93 1005.00 1006.00 1006.87 1007.58 1008.12 1008.53 1008.83 1009.07 1009.29 1009.53 1009.81 1010.15 1010.54 1010.97 1011.43 1011.91 1012.40 1012.88 1013.34 1013.78 1014.19 1014.57 1014.90 1015.19 1015.43 1015.65 1015.84 1016.03 1016.24 1016.47 1016.75
999.91 999.66 999.42 999.19 999.02 998.98 999.12 999.48 1000.09 1000.91 1001.92 1003.02 1004.16 1005.23 1006.19 1006.99 1007.62 1008.09 1008.44 1008.71 1008.94 1009.17 1009.42 1009.72 1010.07 1010.46 1010.89 1011.35 1011.83 1012.32 1012.80 1013.26 1013.69 1014.08 1014.43 1014.72 1014.97 1015.18 1015.37 1015.56 1015.77 1016.02 1016.31
1000.37 1000.02 999.64 999.27 998.95 998.75 998.75 998.99 999.50 1000.26 1001.22 1002.31 1003.45 1004.56 1005.57 1006.43 1007.13 1007.66 1008.06 1008.37 1008.62 1008.86 1009.10 1009.38 1009.69 1010.05 1010.45 1010.88 1011.33 1011.80 1012.26 1012.72 1013.15 1013.54 1013.89 1014.18 1014.43 1014.64 1014.83 1015.03 1015.26 1015.54 1015.88
1000.89 1000.47 1000.01 999.53 999.10 998.80 998.69 998.83 999.25 999.92 1000.82 1001.86 1002.97 1004.06 1005.07 1005.96 1006.69 1007.27 1007.72 1008.07 1008.36 1008.62 1008.88 1009.15 1009.45 1009.78 1010.14 1010.53 1010.94 1011.37 1011.80 1012.22 1012.63 1013.00 1013.34 1013.62 1013.87 1014.09 1014.29 1014.51 1014.77 1015.08 1015.45
1001.40 1000.95 1000.44 999.92 999.44 999.09 998.92 999.00 999.34 999.94 1000.75 1001.71 1002.74 1003.78 1004.75 1005.62 1006.35 1006.95 1007.44 1007.84 1008.18 1008.49 1008.78 1009.06 1009.36 1009.68 1010.00 1010.35 1010.70 1011.07 1011.45 1011.82 1012.18 1012.51 1012.82 1013.10 1013.34 1013.56 1013.78 1014.03 1014.31 1014.65 1015.06
1001.82 1001.37 1000.86 1000.35 999.89 999.54 999.38 999.43 999.73 1000.26 1000.99 1001.85 1002.78 1003.72 1004.61 1005.42 1006.13 1006.73 1007.24 1007.69 1008.08 1008.44 1008.77 1009.10 1009.41 1009.71 1010.01 1010.31 1010.61 1010.91 1011.21 1011.52 1011.82 1012.11 1012.39 1012.64 1012.88 1013.11 1013.35 1013.62 1013.93 1014.29 1014.72
1002.12 1001.68 1001.21 1000.75 1000.35 1000.07 999.95 1000.03 1000.32 1000.81 1001.45 1002.21 1003.02 1003.84 1004.63 1005.35 1006.01 1006.59 1007.11 1007.59 1008.03 1008.44 1008.83 1009.19 1009.53 1009.84 1010.11 1010.37 1010.61 1010.85 1011.08 1011.32 1011.56 1011.81 1012.05 1012.29 1012.53 1012.76 1013.02 1013.30 1013.63 1014.00 1014.43
1002.27 1001.86 1001.46 1001.08 1000.78 1000.59 1000.55 1000.69 1000.99 1001.46 1002.04 1002.70 1003.39 1004.09 1004.75 1005.38 1005.96 1006.50 1007.02 1007.51 1007.99 1008.45 1008.89 1009.29 1009.66 1009.97 1010.23 1010.46 1010.65 1010.83 1011.01 1011.18 1011.38 1011.58 1011.80 1012.03 1012.26 1012.51 1012.78 1013.07 1013.40 1013.77 1014.18
1002.29 1001.92 1001.58 1001.30 1001.10 1001.03 1001.09 1001.30 1001.64 1002.10 1002.63 1003.21 1003.79 1004.37 1004.92 1005.45 1005.95 1006.44 1006.93 1007.43 1007.93 1008.42 1008.90 1009.33 1009.71 1010.03 1010.29 1010.49 1010.65 1010.79 1010.92 1011.06 1011.22 1011.40 1011.60 1011.83 1012.07 1012.33 1012.61 1012.90 1013.22 1013.57 1013.96
1002.23 1001.89 1001.61 1001.42 1001.33 1001.37 1001.53 1001.81 1002.20 1002.66 1003.15 1003.66 1004.16 1004.63 1005.08 1005.51 1005.93 1006.37 1006.82 1007.30 1007.81 1008.31 1008.80 1009.25 1009.65 1009.97 1010.22 1010.41 1010.55 1010.66 1010.77 1010.89 1011.04 1011.22 1011.42 1011.66 1011.91 1012.18 1012.46 1012.75 1013.06 1013.38 1013.71
1002.16 1001.84 1001.62 1001.50 1001.50 1001.62 1001.87 1002.21 1002.63 1003.09 1003.57 1004.03 1004.45 1004.84 1005.20 1005.55 1005.90 1006.28 1006.69 1007.14 1007.62 1008.12 1008.60 1009.05 1009.43 1009.75 1010.00 1010.18 1010.31 1010.42 1010.53 1010.65 1010.81 1011.00 1011.22 1011.47 1011.74 1012.02 1012.30 1012.57 1012.85 1013.13 1013.41
1002.16 1001.87 1001.69 1001.62 1001.68 1001.87 1002.16 1002.54 1002.98 1003.44 1003.89 1004.31 1004.68 1005.01 1005.30 1005.58 1005.87 1006.19 1006.55 1006.95 1007.39 1007.85 1008.30 1008.73 1009.10 1009.40 1009.64 1009.82 1009.96 1010.08 1010.20 1010.34 1010.52 1010.73 1010.98 1011.25 1011.52 1011.80 1012.07 1012.32 1012.56 1012.79 1013.01
1002.34 1002.07 1001.91 1001.88 1001.97 1002.18 1002.50 1002.89 1003.32 1003.76 1004.18 1004.56 1004.88 1005.16 1005.40 1005.62 1005.85 1006.11 1006.41 1006.76 1007.14 1007.55 1007.96 1008.34 1008.68 1008.97 1009.20 1009.38 1009.53 1009.67 1009.81 1009.98 1010.18 1010.42 1010.68 1010.96 1011.24 1011.50 1011.74 1011.96 1012.15 1012.32 1012.49
1002.75 1002.51 1002.37 1002.35 1002.45 1002.65 1002.95 1003.32 1003.72 1004.13 1004.50 1004.83 1005.11 1005.33 1005.52 1005.69 1005.86 1006.07 1006.31 1006.59 1006.91 1007.26 1007.60 1007.94 1008.24 1008.50 1008.72 1008.91 1009.07 1009.23 1009.40 1009.60 1009.82 1010.07 1010.34 1010.61 1010.87 1011.10 1011.31 1011.47 1011.61 1011.72 1011.82
1003.45 1003.23 1003.10 1003.08 1003.16 1003.33 1003.59 1003.90 1004.25 1004.58 1004.90 1005.17 1005.39 1005.56 1005.69 1005.81 1005.93 1006.07 1006.25 1006.46 1006.71 1006.99 1007.28 1007.56 1007.82 1008.06 1008.26 1008.45 1008.63 1008.81 1009.00 1009.21 1009.44 1009.69 1009.94 1010.19 1010.41 1010.60 1010.75 1010.85 1010.92 1010.97 1011.00
1004.41 1004.22 1004.10 1004.06 1004.11 1004.23 1004.42 1004.66 1004.91 1005.17 1005.40 1005.59 1005.74 1005.85 1005.92 1005.98 1006.04 1006.13 1006.24 1006.38 1006.56 1006.77 1007.00 1007.23 1007.45 1007.66 1007.86 1008.04 1008.23 1008.42 1008.61 1008.82 1009.05 1009.27 1009.49 1009.69 1009.86 1009.99 1010.07 1010.11 1010.11 1010.10 1010.07
1005.60 1005.43 1005.32 1005.26 1005.26 1005.31 1005.42 1005.56 1005.71 1005.86 1005.99 1006.10 1006.16 1006.19 1006.20 1006.19 1006.19 1006.21 1006.26 1006.34 1006.46 1006.60 1006.77 1006.95 1007.14 1007.33 1007.51 1007.69 1007.86 1008.05 1008.23 1008.42 1008.62 1008.80 1008.97 1009.11 1009.21 1009.27 1009.29 1009.26 1009.20 1009.13 1009.06
1006.92 1006.77 1006.65 1006.56 1006.51 1006.49 1006.50 1006.54 1006.58 1006.62 1006.64 1006.64 1006.61 1006.56 1006.49 1006.42 1006.36 1006.32 1006.31 1006.33 1006.39 1006.48 1006.60 1006.74 1006.89 1007.04 1007.20 1007.36 1007.52 1007.67 1007.83 1007.98 1008.13 1008.26 1008.36 1008.44 1008.47 1008.46 1008.41 1008.33 1008.22 1008.11 1008.01
Thickness
5810 5809 5806 5804 5800 5796 5792 5789 5786 5784 5782 5781 5779 5777 5776 5776 5776 5774 5771 5769 5767 5766 5766 5766 5763 5762 5760 5758 5757 5753 5750 5748 5748 5745 5742 5743 5746 5745 5744 5743 5743 5742 5740
5809 5807 5806 5804 5801 5797 5794 5790 5787 5786 5784 5782 5780 5778 5777 5777 5776 5774 5771 5769 5767 5766 5767 5764 5764 5762 5759 5756 5754 5752 5750 5748 5748 5744 5740 5737 5738 5740 5743 5741 5740 5740 5739
5811 5808 5806 5805 5803 5799 5796 5794 5790 5788 5785 5784 5782 5779 5777 5776 5775 5772 5771 5769 5768 5766 5765 5764 5763 5761 5760 5757 5754 5751 5749 5746 5746 5747 5742 5738 5735 5737 5738 5738 5738 5736 5736
5816 5812 5809 5806 5804 5803 5801 5796 5793 5789 5787 5784 5782 5779 5776 5774 5773 5773 5772 5769 5768 5766 5765 5763 5761 5760 5760 5756 5754 5753 5750 5746 5745 5745 5744 5743 5742 5735 5731 5734 5735 5734 5733
5819 5815 5813 5810 5808 5807 5803 5799 5795 5791 5788 5785 5782 5778 5777 5776 5775 5773 5770 5769 5769 5767 5765 5763 5761 5759 5758 5756 5754 5751 5749 5748 5746 5744 5743 5740 5738 5738 5732 5727 5729 5731 5732
5821 5818 5816 5813 5810 5809 5806 5802 5796 5791 5789 5786 5783 5779 5777 5774 5772 5770 5769 5769 5769 5767 5765 5763 5760 5758 5757 5754 5752 5750 5748 5747 5745 5744 5743 5740 5738 5737 5734 5729 5726 5727 5728
5822 5819 5815 5812 5809 5807 5805 5802 5797 5792 5790 5786 5783 5781 5777 5775 5772 5770 5769 5768 5768 5767 5765 5764 5760 5758 5756 5754 5752 5749 5748 5746 5743 5742 5742 5742 5741 5740 5735 5730 5727 5724 5725
5823 5820 5818 5814 5811 5809 5806 5803 5798 5793 5791 5787 5784 5781 5779 5778 5776 5772 5771 5769 5769 5768 5766 5763 5760 5757 5755 5753 5751 5750 5748 5746 5743 5742 5740 5740 5740 5739 5735 5731 5726 5721 5721
5822 5821 5819 5816 5813 5810 5807 5805 5800 5795 5792 5789 5785 5782 5780 5778 5776 5773 5771 5770 5768 5768 5765 5762 5759 5756 5754 5752 5749 5749 5746 5744 5743 5742 5740 5739 5738 5737 5735 5732 5728 5722 5717
5822 5821 5820 5817 5814 5812 5809 5806 5802 5797 5794 5791 5787 5785 5781 5778 5776 5774 5771 5770 5768 5766 5764 5761 5758 5756 5753 5751 5748 5747 5744 5742 5740 5739 5737 5735 5735 5734 5732 5730 5727 5724 5720
5820 5820 5819 5818 5816 5814 5810 5805 5801 5797 5794 5791 5788 5785 5782 5779 5776 5773 5771 5769 5767 5765 5762 5759 5757 5754 5752 5749 5746 5746 5742 5739 5738 5736 5734 5732 5730 5729 5729 5727 5724 5721 5718
5819 5818 5817 5815 5813 5812 5809 5805 5801 5797 5794 5791 5788 5785 5782 5779 5776 5773 5770 5768 5765 5763 5761 5758 5755 5752 5750 5747 5744 5742 5740 5737 5735 5733 5731 5729 5728 5725 5725 5722 5720 5718 5715
5813 5814 5812 5810 5809 5808 5806 5804 5800 5797 5794 5791 5787 5784 5780 5777 5773 5771 5768 5766 5763 5761 5759 5756 5753 5750 5747 5744 5742 5740 5737 5735 5733 5730 5727 5726 5723 5720 5720 5718 5717 5715 5714
5807 5807 5806 5805 5804 5803 5802 5801 5799 5796 5792 5789 5785 5781 5778 5775 5772 5769 5766 5763 5761 5759 5756 5753 5750 5748 5745 5742 5739 5737 5734 5732 5729 5727 5725 5723 5720 5718 5715 5714 5711 5710 5708
5802 5803 5801 5800 5800 5799 5798 5797 5795 5793 5790 5785 5781 5778 5776 5773 5770 5766 5763 5761 5758 5756 5753 5749 5746 5744 5742 5740 5736 5734 5732 5728 5725 5723 5722 5720 5716 5712 5710 5711 5708 5705 5704
5797 5799 5798 5797 5796 5795 5794 5793 5791 5789 5786 5781 5778 5775 5772 5769 5766 5763 5760 5757 5754 5751 5748 5745 5743 5740 5740 5733 5729 5728 5728 5725 5721 5719 5717 5715 5711 5707 5703 5701 5699 5697 5697
5792 5792 5794 5794 5793 5793 5791 5789 5787 5785 5781 5777 5774 5771 5768 5764 5762 5760 5756 5752 5749 5746 5743 5741 5739 5736 5732 5726 5723 5721 5722 5721 5718 5715 5712 5713 5710 5705 5702 5697 5693 5691 5688
5786 5787 5789 5790 5790 5790 5788 5785 5783 5779 5776 5772 5769 5766 5763 5759 5757 5754 5750 5747 5745 5742 5739 5736 5734 5731 5727 5720 5717 5715 5716 5716 5713 5711 5708 5706 5703 5701 5697 5695 5692 5689 5686
5781 5783 5785 5786 5785 5783 5781 5779 5776 5773 5770 5767 5764 5762 5758 5755 5752 5749 5745 5743 5740 5737 5735 5732 5729 5726 5722 5715 5712 5708 5711 5710 5708 5706 5704 5701 5698 5692 5688 5687 5686 5684 5682
5776 5778 5780 5780 5777 5776 5774 5771 5769 5767 5764 5762 5760 5757 5753 5750 5747 5744 5741 5738 5736 5733 5731 5728 5725 5722 5718 5711 5706 5702 5707 5705 5703 5700 5698 5693 5690 5685 5681 5681 5680 5678 5677
5769 5771 5771 5770 5769 5768 5767 5764 5762 5760 5760 5758 5754 5751 5748 5745 5742 5738 5735 5732 5730 5727 5725 5722 5720 5717 5714 5707 5702 5698 5701 5701 5699 5698 5696 5692 5683 5678 5675 5673 5674 5671 5668
5759 5761 5760 5759 5760 5761 5759 5756 5755 5755 5754 5751 5747 5745 5743 5741 5738 5733 5730 5727 5724 5720 5718 5715 5714 5713 5710 5704 5699 5694 5691 5692 5693 5691 5691 5687 5678 5673 5669 5667 5666 5662 5659
5749 5751 5751 5750 5751 5751 5750 5748 5746 5747 5746 5743 5740 5738 5736 5734 5732 5728 5724 5721 5718 5717 5715 5713 5711 5709 5707 5702 5695 5689 5686 5683 5684 5685 5680 5676 5670 5666 5664 5660 5657 5655 5656
5738 5740 5740 5740 5739 5740 5741 5739 5738 5738 5737 5734 5732 5731 5729 5727 5725 5722 5720 5717 5714 5712 5710 5709 5706 5704 5700 5696 5692 5688 5683 5677 5676 5676 5672 5667 5663 5661 5659 5656 5653 5652 5651
5728 5729 5728 5728 5728 5729 5729 5729 5729 5728 5727 5726 5724 5723 5722 5720 5717 5715 5712 5711 5708 5706 5703 5703 5700 5696 5693 5689 5683 5680 5678 5675 5672 5669 5667 5665 5662 5659 5657 5655 5652 5649 5646
5717 5717 5718 5718 5718 5718 5718 5718 5718 5718 5717 5717 5716 5717 5716 5714 5711 5708 5705 5700 5699 5695 5692 5690 5688 5688 5683 5678 5674 5670 5668 5665 5661 5660 5661 5659 5657 5654 5653 5649 5646 5642 5640